Time,TemperatureF,DewpointF,PressureIn,WindDirection,WindDirectionDegrees,WindSpeedMPH,WindSpeedGustMPH,Humidity,HourlyPrecipIn,Conditions,Clouds,dailyrainin,SoftwareType,DateUTC
2013-01-07 00:05:00,32.8,31.5,30.20,NW,304,0.0,0.0,95,0.00,,,0.00,Wunderground v.1.15,2013-01-07 05:05:00,
2013-01-07 00:10:00,32.7,31.4,30.20,NW,304,0.0,0.0,95,0.00,,,0.00,Wunderground v.1.15,2013-01-07 05:10:00,
2013-01-07 00:14:00,32.6,31.3,30.20,NW,304,0.0,0.0,95,0.00,,,0.00,Wunderground v.1.15,2013-01-07 05:14:00,
2013-01-07 00:19:00,32.4,31.1,30.20,NW,304,0.0,0.0,95,0.00,,,0.00,Wunderground v.1.15,2013-01-07 05:19:00,
2013-01-07 00:24:00,32.2,30.9,30.20,NW,304,0.0,0.0,95,0.00,,,0.00,Wunderground v.1.15,2013-01-07 05:24:00,
2013-01-07 00:29:00,32.0,30.7,30.21,NW,304,0.0,0.0,95,0.00,,,0.00,Wunderground v.1.15,2013-01-07 05:29:00,
2013-01-07 00:34:00,31.9,30.6,30.20,NW,304,0.0,0.0,95,0.00,,,0.00,Wunderground v.1.15,2013-01-07 05:34:00,
2013-01-07 00:39:00,31.8,30.5,30.21,NW,304,0.0,0.0,95,0.00,,,0.00,Wunderground v.1.15,2013-01-07 05:39:00,
2013-01-07 00:44:00,31.6,30.3,30.21,NW,304,0.0,0.0,95,0.00,,,0.00,Wunderground v.1.15,2013-01-07 05:44:00,
2013-01-07 00:54:00,31.3,30.0,30.21,NW,304,0.0,0.0,95,0.00,,,0.00,Wunderground v.1.15,2013-01-07 05:54:00,
2013-01-07 00:59:00,31.2,29.9,30.21,NW,304,0.0,0.0,95,0.00,,,0.00,Wunderground v.1.15,2013-01-07 05:59:00,
2013-01-07 01:05:00,31.1,29.8,30.21,NW,304,0.0,0.0,95,0.00,,,0.00,Wunderground v.1.15,2013-01-07 06:05:00,
2013-01-07 01:15:00,30.8,29.5,30.21,NW,304,0.0,0.0,95,0.00,,,0.00,Wunderground v.1.15,2013-01-07 06:15:00,
2013-01-07 01:24:00,30.5,29.2,30.22,NW,304,0.0,0.0,95,0.00,,,0.00,Wunderground v.1.15,2013-01-07 06:24:00,
2013-01-07 01:29:00,30.4,29.1,30.22,NW,304,0.0,0.0,95,0.00,,,0.00,Wunderground v.1.15,2013-01-07 06:29:00,
2013-01-07 01:34:00,30.3,29.0,30.22,NW,304,0.0,0.0,95,0.00,,,0.00,Wunderground v.1.15,2013-01-07 06:34:00,
2013-01-07 01:39:00,30.2,28.9,30.22,NW,304,0.0,0.0,95,0.00,,,0.00,Wunderground v.1.15,2013-01-07 06:39:00,
2013-01-07 01:44:00,30.1,28.8,30.22,NW,304,0.0,0.0,95,0.00,,,0.00,Wunderground v.1.15,2013-01-07 06:44:00,
2013-01-07 01:49:00,30.0,28.7,30.22,NW,304,0.0,0.0,95,0.00,,,0.00,Wunderground v.1.15,2013-01-07 06:49:00,
2013-01-07 01:59:00,29.9,28.6,30.23,NW,304,0.0,0.0,95,0.00,,,0.00,Wunderground v.1.15,2013-01-07 06:59:00,
2013-01-07 02:05:00,29.8,28.5,30.22,NW,304,0.0,0.0,95,0.00,,,0.00,Wunderground v.1.15,2013-01-07 07:05:00,
2013-01-07 02:15:00,29.7,28.4,30.23,NW,304,0.0,0.0,95,0.00,,,0.00,Wunderground v.1.15,2013-01-07 07:15:00,
2013-01-07 02:20:00,29.6,28.3,30.23,NW,304,0.0,0.0,95,0.00,,,0.00,Wunderground v.1.15,2013-01-07 07:20:00,
2013-01-07 02:30:00,29.5,28.2,30.23,NW,304,0.0,0.0,95,0.00,,,0.00,Wunderground v.1.15,2013-01-07 07:30:00,
2013-01-07 02:35:00,29.4,28.1,30.23,NW,304,0.0,0.0,95,0.00,,,0.00,Wunderground v.1.15,2013-01-07 07:35:00,
2013-01-07 02:40:00,29.3,28.0,30.23,NW,304,0.0,0.0,95,0.00,,,0.00,Wunderground v.1.15,2013-01-07 07:40:00,
2013-01-07 02:45:00,29.2,27.9,30.24,NW,304,0.0,0.0,95,0.00,,,0.00,Wunderground v.1.15,2013-01-07 07:45:00,
2013-01-07 02:50:00,29.2,28.2,30.23,NW,304,0.0,0.0,96,0.00,,,0.00,Wunderground v.1.15,2013-01-07 07:50:00,
2013-01-07 02:55:00,29.2,28.2,30.23,NW,304,0.0,0.0,96,0.00,,,0.00,Wunderground v.1.15,2013-01-07 07:55:00,
2013-01-07 03:05:00,29.1,28.1,30.24,NW,304,0.0,0.0,96,0.00,,,0.00,Wunderground v.1.15,2013-01-07 08:05:00,
2013-01-07 03:15:00,29.0,28.0,30.24,NW,304,0.0,0.0,96,0.00,,,0.00,Wunderground v.1.15,2013-01-07 08:15:00,
2013-01-07 03:20:00,28.9,27.6,30.24,NW,304,0.0,0.0,95,0.00,,,0.00,Wunderground v.1.15,2013-01-07 08:20:00,
2013-01-07 03:25:00,28.8,27.8,30.23,NW,304,0.0,0.0,96,0.00,,,0.00,Wunderground v.1.15,2013-01-07 08:25:00,
2013-01-07 03:35:00,28.7,27.7,30.24,NW,304,0.0,0.0,96,0.00,,,0.00,Wunderground v.1.15,2013-01-07 08:35:00,
2013-01-07 03:40:00,28.6,27.6,30.23,NW,304,0.0,0.0,96,0.00,,,0.00,Wunderground v.1.15,2013-01-07 08:40:00,
2013-01-07 03:45:00,28.6,27.6,30.24,NW,304,0.0,0.0,96,0.00,,,0.00,Wunderground v.1.15,2013-01-07 08:45:00,
2013-01-07 03:50:00,28.5,27.5,30.23,NW,304,0.0,0.0,96,0.00,,,0.00,Wunderground v.1.15,2013-01-07 08:50:00,
2013-01-07 03:55:00,28.4,27.4,30.24,NW,304,0.0,0.0,96,0.00,,,0.00,Wunderground v.1.15,2013-01-07 08:55:00,
2013-01-07 04:00:00,28.4,27.4,30.24,NW,304,0.0,0.0,96,0.00,,,0.00,Wunderground v.1.15,2013-01-07 09:00:00,
2013-01-07 04:05:00,28.3,27.3,30.25,NW,304,0.0,0.0,96,0.00,,,0.00,Wunderground v.1.15,2013-01-07 09:05:00,
2013-01-07 04:14:00,28.3,27.3,30.25,NW,304,0.0,0.0,96,0.00,,,0.00,Wunderground v.1.15,2013-01-07 09:14:00,
2013-01-07 04:19:00,28.2,27.2,30.24,NW,304,0.0,0.0,96,0.00,,,0.00,Wunderground v.1.15,2013-01-07 09:19:00,
2013-01-07 04:24:00,28.2,27.2,30.25,NW,304,0.0,0.0,96,0.00,,,0.00,Wunderground v.1.15,2013-01-07 09:24:00,
2013-01-07 04:29:00,28.2,27.2,30.25,NW,304,0.0,0.0,96,0.00,,,0.00,Wunderground v.1.15,2013-01-07 09:29:00,
2013-01-07 04:34:00,28.2,27.2,30.25,NW,304,0.0,0.0,96,0.00,,,0.00,Wunderground v.1.15,2013-01-07 09:34:00,
2013-01-07 04:44:00,28.3,27.3,30.25,NW,304,0.0,0.0,96,0.00,,,0.00,Wunderground v.1.15,2013-01-07 09:44:00,
2013-01-07 04:49:00,28.3,27.3,30.25,NW,304,0.0,0.0,96,0.00,,,0.00,Wunderground v.1.15,2013-01-07 09:49:00,
2013-01-07 04:54:00,28.3,27.3,30.26,NW,304,0.0,0.0,96,0.00,,,0.00,Wunderground v.1.15,2013-01-07 09:54:00,
2013-01-07 04:59:00,28.3,27.3,30.26,NW,304,0.0,0.0,96,0.00,,,0.00,Wunderground v.1.15,2013-01-07 09:59:00,
2013-01-07 05:05:00,28.4,27.4,30.26,NW,304,0.0,0.0,96,0.00,,,0.00,Wunderground v.1.15,2013-01-07 10:05:00,
2013-01-07 05:14:00,28.5,27.5,30.26,NW,304,0.0,0.0,96,0.00,,,0.00,Wunderground v.1.15,2013-01-07 10:14:00,
2013-01-07 05:19:00,28.7,28.0,30.27,NW,304,0.0,0.0,97,0.00,,,0.00,Wunderground v.1.15,2013-01-07 10:19:00,
2013-01-07 05:24:00,28.8,28.1,30.27,NW,304,0.0,0.0,97,0.00,,,0.00,Wunderground v.1.15,2013-01-07 10:24:00,
2013-01-07 05:29:00,29.0,28.3,30.27,NW,304,0.0,0.0,97,0.00,,,0.00,Wunderground v.1.15,2013-01-07 10:29:00,
2013-01-07 05:34:00,29.2,28.5,30.28,NW,304,0.0,0.0,97,0.00,,,0.00,Wunderground v.1.15,2013-01-07 10:34:00,
2013-01-07 05:39:00,29.2,28.5,30.27,NW,304,0.0,0.0,97,0.00,,,0.00,Wunderground v.1.15,2013-01-07 10:39:00,
2013-01-07 05:49:00,29.5,28.8,30.29,NW,304,0.0,0.0,97,0.00,,,0.00,Wunderground v.1.15,2013-01-07 10:49:00,
2013-01-07 05:54:00,29.6,28.9,30.29,NW,304,0.0,0.0,97,0.00,,,0.00,Wunderground v.1.15,2013-01-07 10:54:00,
2013-01-07 05:59:00,29.7,29.0,30.29,NW,304,0.0,0.0,97,0.00,,,0.00,Wunderground v.1.15,2013-01-07 10:59:00,
2013-01-07 06:05:00,29.6,28.9,30.31,NW,304,0.0,0.0,97,0.00,,,0.00,Wunderground v.1.15,2013-01-07 11:05:00,
2013-01-07 06:14:00,29.5,28.5,30.30,NW,304,0.0,0.0,96,0.00,,,0.00,Wunderground v.1.15,2013-01-07 11:14:00,
2013-01-07 06:19:00,29.4,28.4,30.31,NW,304,0.0,0.0,96,0.00,,,0.00,Wunderground v.1.15,2013-01-07 11:19:00,
2013-01-07 06:24:00,29.5,28.5,30.31,NW,304,0.0,0.0,96,0.00,,,0.00,Wunderground v.1.15,2013-01-07 11:24:00,
2013-01-07 06:29:00,29.5,28.5,30.31,NW,304,0.0,0.0,96,0.00,,,0.00,Wunderground v.1.15,2013-01-07 11:29:00,
2013-01-07 06:34:00,29.5,28.5,30.31,NW,304,0.0,0.0,96,0.00,,,0.00,Wunderground v.1.15,2013-01-07 11:34:00,
2013-01-07 06:39:00,29.4,28.4,30.32,NW,304,0.0,0.0,96,0.00,,,0.00,Wunderground v.1.15,2013-01-07 11:39:00,
2013-01-07 06:44:00,29.4,28.4,30.32,NW,304,0.0,0.0,96,0.00,,,0.00,Wunderground v.1.15,2013-01-07 11:44:00,
2013-01-07 06:54:00,29.8,29.1,30.33,NW,304,0.0,0.0,97,0.00,,,0.00,Wunderground v.1.15,2013-01-07 11:54:00,
2013-01-07 06:59:00,29.9,29.2,30.33,NW,304,0.0,0.0,97,0.00,,,0.00,Wunderground v.1.15,2013-01-07 11:59:00,
2013-01-07 07:05:00,30.1,29.4,30.33,NW,304,0.0,0.0,97,0.00,,,0.00,Wunderground v.1.15,2013-01-07 12:05:00,
2013-01-07 07:15:00,30.3,29.6,30.34,NW,304,0.0,0.0,97,0.00,,,0.00,Wunderground v.1.15,2013-01-07 12:15:00,
2013-01-07 07:25:00,30.4,29.7,30.35,NW,304,0.0,0.0,97,0.00,,,0.00,Wunderground v.1.15,2013-01-07 12:25:00,
2013-01-07 07:30:00,30.4,29.7,30.35,NW,304,0.0,0.0,97,0.00,,,0.00,Wunderground v.1.15,2013-01-07 12:30:00,
2013-01-07 07:35:00,30.4,29.7,30.36,NW,304,0.0,0.0,97,0.00,,,0.00,Wunderground v.1.15,2013-01-07 12:35:00,
2013-01-07 07:40:00,30.5,29.8,30.36,NW,304,0.0,0.0,97,0.00,,,0.00,Wunderground v.1.15,2013-01-07 12:40:00,
2013-01-07 07:45:00,30.7,30.0,30.36,NW,304,0.0,0.0,97,0.00,,,0.00,Wunderground v.1.15,2013-01-07 12:45:00,
2013-01-07 07:50:00,31.0,30.2,30.37,NW,304,0.0,0.0,97,0.00,,,0.00,Wunderground v.1.15,2013-01-07 12:50:00,
2013-01-07 08:00:00,31.5,30.7,30.37,NW,309,0.0,0.0,97,0.00,,,0.00,Wunderground v.1.15,2013-01-07 13:00:00,
2013-01-07 08:05:00,31.7,30.9,30.38,NW,309,0.0,0.0,97,0.00,,,0.00,Wunderground v.1.15,2013-01-07 13:05:00,
2013-01-07 08:15:00,32.2,31.4,30.38,NW,309,0.0,0.0,97,0.00,,,0.00,Wunderground v.1.15,2013-01-07 13:15:00,
2013-01-07 08:20:00,32.5,31.7,30.38,NW,309,0.0,0.0,97,0.00,,,0.00,Wunderground v.1.15,2013-01-07 13:20:00,
2013-01-07 08:30:00,32.9,32.1,30.39,NW,310,0.0,0.0,97,0.00,,,0.00,Wunderground v.1.15,2013-01-07 13:30:00,
2013-01-07 08:35:00,33.2,32.4,30.40,NW,310,0.0,0.0,97,0.00,,,0.00,Wunderground v.1.15,2013-01-07 13:35:00,
2013-01-07 08:40:00,33.5,32.5,30.40,NW,321,0.0,0.0,96,0.00,,,0.00,Wunderground v.1.15,2013-01-07 13:40:00,
2013-01-07 08:45:00,34.1,33.1,30.40,NW,307,0.0,0.0,96,0.00,,,0.00,Wunderground v.1.15,2013-01-07 13:45:00,
2013-01-07 08:50:00,34.4,33.4,30.41,NW,307,0.0,0.0,96,0.00,,,0.00,Wunderground v.1.15,2013-01-07 13:50:00,
2013-01-07 08:55:00,35.1,33.8,30.41,WNW,299,0.0,0.0,95,0.00,,,0.00,Wunderground v.1.15,2013-01-07 13:55:00,
2013-01-07 09:05:00,36.5,34.7,30.41,WNW,297,0.0,0.0,93,0.00,,,0.00,Wunderground v.1.15,2013-01-07 14:05:00,
2013-01-07 09:14:00,37.7,34.8,30.42,NNW,341,0.0,0.0,89,0.00,,,0.01,Wunderground v.1.15,2013-01-07 14:14:00,
2013-01-07 09:19:00,38.4,34.9,30.42,NW,305,0.0,0.0,87,0.00,,,0.01,Wunderground v.1.15,2013-01-07 14:19:00,
2013-01-07 09:24:00,39.0,34.9,30.42,NNW,333,0.0,0.0,85,0.00,,,0.01,Wunderground v.1.15,2013-01-07 14:24:00,
2013-01-07 09:29:00,39.7,34.7,30.42,NNE,32,1.0,1.0,82,0.00,,,0.01,Wunderground v.1.15,2013-01-07 14:29:00,
2013-01-07 09:35:00,40.2,34.5,30.42,North,5,1.0,1.0,80,0.00,,,0.01,Wunderground v.1.15,2013-01-07 14:35:00,
2013-01-07 09:40:00,40.7,34.4,30.43,NW,325,1.0,1.0,78,0.00,,,0.01,Wunderground v.1.15,2013-01-07 14:40:00,
2013-01-07 09:45:00,41.1,34.4,30.43,NNW,346,1.0,1.0,77,0.00,,,0.01,Wunderground v.1.15,2013-01-07 14:45:00,
2013-01-07 09:50:00,41.3,34.0,30.43,West,280,0.0,0.0,75,0.00,,,0.01,Wunderground v.1.15,2013-01-07 14:50:00,
2013-01-07 09:55:00,41.5,34.2,30.43,NW,323,1.0,1.0,75,0.00,,,0.01,Wunderground v.1.15,2013-01-07 14:55:00,
2013-01-07 10:00:00,41.9,34.2,30.44,NNE,30,1.0,1.0,74,0.00,,,0.01,Wunderground v.1.15,2013-01-07 15:00:00,
2013-01-07 10:05:00,42.3,34.3,30.43,ENE,75,1.0,1.0,73,0.00,,,0.01,Wunderground v.1.15,2013-01-07 15:05:00,
2013-01-07 10:14:00,42.7,34.3,30.44,WNW,298,1.0,2.0,72,0.00,,,0.01,Wunderground v.1.15,2013-01-07 15:14:00,
2013-01-07 10:19:00,42.8,34.4,30.44,ENE,71,1.0,1.0,72,0.00,,,0.01,Wunderground v.1.15,2013-01-07 15:19:00,
2013-01-07 10:24:00,42.9,34.8,30.44,NW,306,0.0,1.0,73,0.00,,,0.01,Wunderground v.1.15,2013-01-07 15:24:00,
2013-01-07 10:29:00,43.1,34.7,30.44,WNW,303,0.0,4.0,72,0.00,,,0.01,Wunderground v.1.15,2013-01-07 15:29:00,
2013-01-07 10:34:00,43.4,35.0,30.44,NW,304,0.0,4.0,72,0.00,,,0.01,Wunderground v.1.15,2013-01-07 15:34:00,
2013-01-07 10:44:00,44.3,34.8,30.44,NNE,25,1.0,2.0,69,0.00,,,0.01,Wunderground v.1.15,2013-01-07 15:44:00,
2013-01-07 10:49:00,44.6,35.1,30.44,NNW,342,1.0,1.0,69,0.00,,,0.01,Wunderground v.1.15,2013-01-07 15:49:00,
2013-01-07 10:54:00,44.9,35.7,30.44,West,279,1.0,1.0,70,0.00,,,0.01,Wunderground v.1.15,2013-01-07 15:54:00,
2013-01-07 10:59:00,45.2,35.3,30.44,West,279,0.0,1.0,68,0.00,,,0.01,Wunderground v.1.15,2013-01-07 15:59:00,
2013-01-07 11:05:00,45.6,35.3,30.44,WSW,250,1.0,1.0,67,0.00,,,0.01,Wunderground v.1.15,2013-01-07 16:05:00,
2013-01-07 11:14:00,45.9,35.2,30.44,NNW,340,1.0,4.0,66,0.00,,,0.01,Wunderground v.1.15,2013-01-07 16:14:00,
2013-01-07 11:19:00,46.0,34.9,30.44,NW,315,1.0,3.0,65,0.00,,,0.01,Wunderground v.1.15,2013-01-07 16:19:00,
2013-01-07 11:24:00,46.2,35.5,30.44,NW,316,1.0,3.0,66,0.00,,,0.01,Wunderground v.1.15,2013-01-07 16:24:00,
2013-01-07 11:29:00,46.4,35.3,30.43,West,270,1.0,3.0,65,0.00,,,0.01,Wunderground v.1.15,2013-01-07 16:29:00,
2013-01-07 11:34:00,46.7,35.6,30.43,West,277,1.0,3.0,65,0.00,,,0.01,Wunderground v.1.15,2013-01-07 16:34:00,
2013-01-07 11:39:00,47.1,35.5,30.43,NNW,329,1.0,1.0,64,0.00,,,0.01,Wunderground v.1.15,2013-01-07 16:39:00,
2013-01-07 11:49:00,47.9,35.5,30.42,SSW,198,1.0,1.0,62,0.00,,,0.01,Wunderground v.1.15,2013-01-07 16:49:00,
2013-01-07 11:54:00,48.2,36.2,30.42,NW,312,1.0,1.0,63,0.00,,,0.01,Wunderground v.1.15,2013-01-07 16:54:00,
2013-01-07 11:59:00,48.4,35.6,30.42,West,267,1.0,1.0,61,0.00,,,0.01,Wunderground v.1.15,2013-01-07 16:59:00,
2013-01-07 12:05:00,48.6,35.3,30.42,West,275,1.0,1.0,60,0.00,,,0.01,Wunderground v.1.15,2013-01-07 17:05:00,
2013-01-07 12:15:00,48.7,35.4,30.42,West,261,1.0,8.0,60,0.00,,,0.01,Wunderground v.1.15,2013-01-07 17:15:00,
2013-01-07 12:20:00,48.6,34.9,30.41,NE,45,1.0,1.0,59,0.00,,,0.01,Wunderground v.1.15,2013-01-07 17:20:00,
2013-01-07 12:25:00,49.0,34.9,30.41,ESE,102,1.0,1.0,58,0.00,,,0.01,Wunderground v.1.15,2013-01-07 17:25:00,
2013-01-07 12:30:00,49.2,35.5,30.41,NNW,333,1.0,1.0,59,0.00,,,0.01,Wunderground v.1.15,2013-01-07 17:30:00,
2013-01-07 12:35:00,49.2,35.0,30.41,NE,38,1.0,1.0,58,0.00,,,0.01,Wunderground v.1.15,2013-01-07 17:35:00,
2013-01-07 12:40:00,49.3,34.7,30.41,NE,44,1.0,1.0,57,0.00,,,0.01,Wunderground v.1.15,2013-01-07 17:40:00,
2013-01-07 12:45:00,49.4,34.8,30.41,WNW,298,1.0,1.0,57,0.00,,,0.01,Wunderground v.1.15,2013-01-07 17:45:00,
2013-01-07 12:54:00,49.9,35.7,30.41,West,273,0.0,3.0,58,0.00,,,0.01,Wunderground v.1.15,2013-01-07 17:54:00,
2013-01-07 12:59:00,50.0,35.8,30.40,WNW,292,1.0,1.0,58,0.00,,,0.01,Wunderground v.1.15,2013-01-07 17:59:00,
2013-01-07 13:05:00,50.3,35.2,30.40,WSW,242,1.0,1.0,56,0.00,,,0.01,Wunderground v.1.15,2013-01-07 18:05:00,
2013-01-07 13:15:00,50.5,35.4,30.40,North,5,1.0,1.0,56,0.00,,,0.01,Wunderground v.1.15,2013-01-07 18:15:00,
2013-01-07 13:25:00,50.9,35.3,30.40,WNW,288,1.0,1.0,55,0.00,,,0.01,Wunderground v.1.15,2013-01-07 18:25:00,
2013-01-07 13:30:00,51.0,35.4,30.40,NW,310,1.0,1.0,55,0.00,,,0.01,Wunderground v.1.15,2013-01-07 18:30:00,
2013-01-07 13:35:00,50.8,35.7,30.41,WNW,289,1.0,1.0,56,0.00,,,0.01,Wunderground v.1.15,2013-01-07 18:35:00,
2013-01-07 13:40:00,50.9,35.3,30.40,North,11,1.0,1.0,55,0.00,,,0.01,Wunderground v.1.15,2013-01-07 18:40:00,
2013-01-07 13:45:00,50.9,34.8,30.40,West,277,1.0,1.0,54,0.00,,,0.01,Wunderground v.1.15,2013-01-07 18:45:00,
2013-01-07 13:50:00,51.0,34.9,30.40,NW,315,1.0,1.0,54,0.00,,,0.01,Wunderground v.1.15,2013-01-07 18:50:00,
2013-01-07 13:59:00,51.1,35.0,30.40,WNW,290,1.0,1.0,54,0.00,,,0.01,Wunderground v.1.15,2013-01-07 18:59:00,
2013-01-07 14:05:00,51.1,35.0,30.40,WNW,290,0.0,1.0,54,0.00,,,0.01,Wunderground v.1.15,2013-01-07 19:05:00,
2013-01-07 14:15:00,51.0,35.4,30.40,WNW,298,1.0,1.0,55,0.00,,,0.01,Wunderground v.1.15,2013-01-07 19:15:00,
2013-01-07 14:20:00,51.2,35.1,30.40,West,270,1.0,1.0,54,0.00,,,0.01,Wunderground v.1.15,2013-01-07 19:20:00,
2013-01-07 14:30:00,51.2,35.1,30.40,WNW,295,1.0,1.0,54,0.00,,,0.01,Wunderground v.1.15,2013-01-07 19:30:00,
2013-01-07 14:35:00,51.6,35.9,30.40,WNW,295,1.0,1.0,55,0.00,,,0.01,Wunderground v.1.15,2013-01-07 19:35:00,
2013-01-07 14:40:00,51.7,35.1,30.40,WNW,295,0.0,0.0,53,0.00,,,0.01,Wunderground v.1.15,2013-01-07 19:40:00,
2013-01-07 14:45:00,51.9,35.8,30.41,WNW,295,0.0,0.0,54,0.00,,,0.01,Wunderground v.1.15,2013-01-07 19:45:00,
2013-01-07 14:50:00,52.2,35.6,30.41,WNW,296,0.0,1.0,53,0.00,,,0.01,Wunderground v.1.15,2013-01-07 19:50:00,
2013-01-07 14:55:00,52.3,35.2,30.41,WNW,302,0.0,1.0,52,0.00,,,0.01,Wunderground v.1.15,2013-01-07 19:55:00,
2013-01-07 15:05:00,52.7,35.1,30.41,SW,228,0.0,0.0,51,0.00,,,0.01,Wunderground v.1.15,2013-01-07 20:05:00,
2013-01-07 15:15:00,53.0,35.3,30.41,SW,228,0.0,0.0,51,0.00,,,0.01,Wunderground v.1.15,2013-01-07 20:15:00,
2013-01-07 15:20:00,53.2,35.5,30.41,SW,228,0.0,2.0,51,0.00,,,0.01,Wunderground v.1.15,2013-01-07 20:20:00,
2013-01-07 15:25:00,53.0,35.3,30.41,SW,229,0.0,2.0,51,0.00,,,0.01,Wunderground v.1.15,2013-01-07 20:25:00,
2013-01-07 15:35:00,53.1,35.4,30.42,SW,228,0.0,1.0,51,0.00,,,0.01,Wunderground v.1.15,2013-01-07 20:35:00,
2013-01-07 15:40:00,53.1,35.4,30.42,SW,228,0.0,1.0,51,0.00,,,0.01,Wunderground v.1.15,2013-01-07 20:40:00,
2013-01-07 15:45:00,52.9,36.2,30.42,SW,228,0.0,1.0,53,0.00,,,0.01,Wunderground v.1.15,2013-01-07 20:45:00,
2013-01-07 15:50:00,52.8,36.1,30.42,SW,228,1.0,1.0,53,0.00,,,0.01,Wunderground v.1.15,2013-01-07 20:50:00,
2013-01-07 15:55:00,52.8,36.1,30.42,SW,228,0.0,1.0,53,0.00,,,0.01,Wunderground v.1.15,2013-01-07 20:55:00,
2013-01-07 16:00:00,52.8,36.1,30.42,SW,228,0.0,0.0,53,0.00,,,0.01,Wunderground v.1.15,2013-01-07 21:00:00,
2013-01-07 16:05:00,52.8,35.6,30.42,SW,228,0.0,0.0,52,0.00,,,0.01,Wunderground v.1.15,2013-01-07 21:05:00,
2013-01-07 16:14:00,52.7,35.6,30.42,WSW,246,0.0,0.0,52,0.00,,,0.01,Wunderground v.1.15,2013-01-07 21:14:00,
2013-01-07 16:19:00,52.6,35.9,30.42,WSW,246,0.0,0.0,53,0.00,,,0.01,Wunderground v.1.15,2013-01-07 21:19:00,
2013-01-07 16:24:00,52.2,36.0,30.42,WSW,246,0.0,0.0,54,0.00,,,0.01,Wunderground v.1.15,2013-01-07 21:24:00,
2013-01-07 16:29:00,51.8,36.1,30.43,WSW,246,0.0,0.0,55,0.00,,,0.01,Wunderground v.1.15,2013-01-07 21:29:00,
2013-01-07 16:34:00,51.4,35.8,30.42,WSW,246,0.0,0.0,55,0.00,,,0.01,Wunderground v.1.15,2013-01-07 21:34:00,
2013-01-07 16:44:00,50.4,35.7,30.43,WSW,246,0.0,0.0,57,0.00,,,0.01,Wunderground v.1.15,2013-01-07 21:44:00,
2013-01-07 16:49:00,49.9,36.1,30.43,WSW,246,0.0,0.0,59,0.00,,,0.01,Wunderground v.1.15,2013-01-07 21:49:00,
2013-01-07 16:54:00,49.4,35.7,30.43,WSW,246,0.0,0.0,59,0.00,,,0.01,Wunderground v.1.15,2013-01-07 21:54:00,
2013-01-07 16:59:00,48.9,35.6,30.43,WSW,246,0.0,0.0,60,0.00,,,0.01,Wunderground v.1.15,2013-01-07 21:59:00,
2013-01-07 17:05:00,48.3,35.9,30.43,WSW,246,0.0,0.0,62,0.00,,,0.01,Wunderground v.1.15,2013-01-07 22:05:00,
2013-01-07 17:15:00,47.1,35.5,30.43,WSW,246,0.0,0.0,64,0.00,,,0.01,Wunderground v.1.15,2013-01-07 22:15:00,
2013-01-07 17:20:00,46.5,35.4,30.43,WSW,246,0.0,0.0,65,0.00,,,0.01,Wunderground v.1.15,2013-01-07 22:20:00,
2013-01-07 17:25:00,46.0,34.9,30.43,WSW,246,0.0,0.0,65,0.00,,,0.01,Wunderground v.1.15,2013-01-07 22:25:00,
2013-01-07 17:30:00,45.5,34.8,30.44,WSW,246,0.0,0.0,66,0.00,,,0.01,Wunderground v.1.15,2013-01-07 22:30:00,
2013-01-07 17:35:00,45.0,35.1,30.44,WSW,246,0.0,0.0,68,0.00,,,0.01,Wunderground v.1.15,2013-01-07 22:35:00,
2013-01-07 17:40:00,44.5,34.6,30.44,WSW,246,0.0,0.0,68,0.00,,,0.01,Wunderground v.1.15,2013-01-07 22:40:00,
2013-01-07 17:50:00,43.3,34.5,30.44,WSW,246,0.0,0.0,71,0.00,,,0.01,Wunderground v.1.15,2013-01-07 22:50:00,
2013-01-07 17:55:00,42.8,34.0,30.44,WSW,246,0.0,0.0,71,0.00,,,0.01,Wunderground v.1.15,2013-01-07 22:55:00,
2013-01-07 18:00:00,42.2,34.2,30.44,WSW,246,0.0,0.0,73,0.00,,,0.01,Wunderground v.1.15,2013-01-07 23:00:00,
2013-01-07 18:05:00,41.7,33.7,30.44,WSW,246,0.0,0.0,73,0.00,,,0.01,Wunderground v.1.15,2013-01-07 23:05:00,
2013-01-07 18:15:00,40.7,33.4,30.44,WSW,246,0.0,0.0,75,0.00,,,0.01,Wunderground v.1.15,2013-01-07 23:15:00,
2013-01-07 18:20:00,40.3,33.3,30.44,WSW,246,0.0,0.0,76,0.00,,,0.01,Wunderground v.1.15,2013-01-07 23:20:00,
2013-01-07 18:25:00,39.8,33.2,30.44,WSW,246,0.0,0.0,77,0.00,,,0.01,Wunderground v.1.15,2013-01-07 23:25:00,
2013-01-07 18:30:00,39.4,32.8,30.44,WSW,246,0.0,0.0,77,0.00,,,0.01,Wunderground v.1.15,2013-01-07 23:30:00,
2013-01-07 18:35:00,39.0,32.7,30.44,WSW,246,0.0,0.0,78,0.00,,,0.01,Wunderground v.1.15,2013-01-07 23:35:00,
2013-01-07 18:40:00,38.6,32.6,30.44,WSW,246,0.0,0.0,79,0.00,,,0.01,Wunderground v.1.15,2013-01-07 23:40:00,
2013-01-07 18:45:00,38.2,32.3,30.45,WSW,246,0.0,0.0,79,0.00,,,0.01,Wunderground v.1.15,2013-01-07 23:45:00,
2013-01-07 18:55:00,37.5,32.2,30.45,WSW,246,0.0,0.0,81,0.00,,,0.01,Wunderground v.1.15,2013-01-07 23:55:00,
2013-01-07 19:00:00,37.2,31.9,30.45,WSW,246,0.0,0.0,81,0.00,,,0.01,Wunderground v.1.15,2013-01-08 00:00:00,
2013-01-07 19:05:00,36.9,31.9,30.45,WSW,246,0.0,0.0,82,0.00,,,0.01,Wunderground v.1.15,2013-01-08 00:05:00,
2013-01-07 19:15:00,36.3,31.6,30.45,WSW,246,0.0,0.0,83,0.00,,,0.01,Wunderground v.1.15,2013-01-08 00:15:00,
2013-01-07 19:20:00,36.0,31.3,30.45,WSW,246,0.0,0.0,83,0.00,,,0.01,Wunderground v.1.15,2013-01-08 00:20:00,
2013-01-07 19:29:00,35.5,31.4,30.45,WSW,246,0.0,0.0,85,0.00,,,0.01,Wunderground v.1.15,2013-01-08 00:29:00,
2013-01-07 19:34:00,35.3,31.2,30.46,WSW,246,0.0,0.0,85,0.00,,,0.01,Wunderground v.1.15,2013-01-08 00:34:00,
2013-01-07 19:40:00,35.0,30.9,30.46,WSW,246,0.0,0.0,85,0.00,,,0.01,Wunderground v.1.15,2013-01-08 00:40:00,
2013-01-07 19:45:00,34.7,30.7,30.46,WSW,246,0.0,0.0,85,0.00,,,0.01,Wunderground v.1.15,2013-01-08 00:45:00,
2013-01-07 19:50:00,34.4,30.6,30.46,WSW,246,0.0,0.0,86,0.00,,,0.01,Wunderground v.1.15,2013-01-08 00:50:00,
2013-01-07 19:55:00,34.4,30.6,30.46,WSW,246,0.0,0.0,86,0.00,,,0.01,Wunderground v.1.15,2013-01-08 00:55:00,
2013-01-07 20:05:00,33.8,30.3,30.46,WSW,246,0.0,0.0,87,0.00,,,0.01,Wunderground v.1.15,2013-01-08 01:05:00,
2013-01-07 20:15:00,33.4,29.9,30.46,WSW,246,0.0,0.0,87,0.00,,,0.01,Wunderground v.1.15,2013-01-08 01:15:00,
2013-01-07 20:20:00,33.2,29.8,30.46,WSW,246,0.0,0.0,87,0.00,,,0.01,Wunderground v.1.15,2013-01-08 01:20:00,
2013-01-07 20:25:00,33.0,29.8,30.46,WSW,246,0.0,0.0,88,0.00,,,0.01,Wunderground v.1.15,2013-01-08 01:25:00,
2013-01-07 20:35:00,32.6,29.7,30.47,WSW,246,0.0,0.0,89,0.00,,,0.01,Wunderground v.1.15,2013-01-08 01:35:00,
2013-01-07 20:40:00,32.4,29.5,30.47,WSW,246,0.0,0.0,89,0.00,,,0.01,Wunderground v.1.15,2013-01-08 01:40:00,
2013-01-07 20:45:00,32.3,29.4,30.47,WSW,246,0.0,0.0,89,0.00,,,0.01,Wunderground v.1.15,2013-01-08 01:45:00,
2013-01-07 20:50:00,32.1,29.2,30.47,WSW,246,0.0,0.0,89,0.00,,,0.01,Wunderground v.1.15,2013-01-08 01:50:00,
2013-01-07 20:55:00,31.9,29.0,30.47,WSW,246,0.0,0.0,89,0.00,,,0.01,Wunderground v.1.15,2013-01-08 01:55:00,
2013-01-07 21:05:00,31.6,29.0,30.46,WSW,246,0.0,0.0,90,0.00,,,0.01,Wunderground v.1.15,2013-01-08 02:05:00,
2013-01-07 21:15:00,31.3,28.7,30.47,WSW,246,0.0,0.0,90,0.00,,,0.01,Wunderground v.1.15,2013-01-08 02:15:00,
2013-01-07 21:20:00,31.2,28.6,30.46,WSW,246,0.0,0.0,90,0.00,,,0.01,Wunderground v.1.15,2013-01-08 02:20:00,
2013-01-07 21:25:00,31.0,28.4,30.46,WSW,246,0.0,0.0,90,0.00,,,0.01,Wunderground v.1.15,2013-01-08 02:25:00,
2013-01-07 21:30:00,30.9,28.6,30.46,WSW,246,0.0,0.0,91,0.00,,,0.01,Wunderground v.1.15,2013-01-08 02:30:00,
2013-01-07 21:35:00,30.7,28.4,30.46,WSW,246,0.0,0.0,91,0.00,,,0.01,Wunderground v.1.15,2013-01-08 02:35:00,
2013-01-07 21:40:00,30.5,28.2,30.46,WSW,246,0.0,0.0,91,0.00,,,0.01,Wunderground v.1.15,2013-01-08 02:40:00,
2013-01-07 21:45:00,30.3,28.0,30.46,WSW,246,0.0,0.0,91,0.00,,,0.01,Wunderground v.1.15,2013-01-08 02:45:00,
2013-01-07 21:50:00,30.2,27.9,30.46,WSW,246,0.0,0.0,91,0.00,,,0.01,Wunderground v.1.15,2013-01-08 02:50:00,
2013-01-07 21:55:00,30.1,27.8,30.46,WSW,246,0.0,0.0,91,0.00,,,0.01,Wunderground v.1.15,2013-01-08 02:55:00,
2013-01-07 22:00:00,30.0,28.0,30.46,WSW,246,0.0,0.0,92,0.00,,,0.01,Wunderground v.1.15,2013-01-08 03:00:00,
2013-01-07 22:05:00,29.9,27.9,30.46,WSW,246,0.0,0.0,92,0.00,,,0.01,Wunderground v.1.15,2013-01-08 03:05:00,
2013-01-07 22:14:00,29.7,27.7,30.47,WSW,246,0.0,0.0,92,0.00,,,0.01,Wunderground v.1.15,2013-01-08 03:14:00,
2013-01-07 22:19:00,29.6,27.6,30.46,WSW,246,0.0,0.0,92,0.00,,,0.01,Wunderground v.1.15,2013-01-08 03:19:00,
2013-01-07 22:24:00,29.5,27.5,30.46,WSW,246,0.0,0.0,92,0.00,,,0.01,Wunderground v.1.15,2013-01-08 03:24:00,
2013-01-07 22:29:00,29.4,27.4,30.46,WSW,246,0.0,0.0,92,0.00,,,0.01,Wunderground v.1.15,2013-01-08 03:29:00,
2013-01-07 22:34:00,29.3,27.3,30.46,WSW,246,0.0,0.0,92,0.00,,,0.01,Wunderground v.1.15,2013-01-08 03:34:00,
2013-01-07 22:39:00,29.2,27.2,30.46,WSW,246,0.0,0.0,92,0.00,,,0.01,Wunderground v.1.15,2013-01-08 03:39:00,
2013-01-07 22:49:00,29.1,27.3,30.46,WSW,246,0.0,0.0,93,0.00,,,0.01,Wunderground v.1.15,2013-01-08 03:49:00,
2013-01-07 22:54:00,29.0,27.2,30.46,WSW,246,0.0,0.0,93,0.00,,,0.01,Wunderground v.1.15,2013-01-08 03:54:00,
2013-01-07 22:59:00,29.0,27.2,30.46,WSW,246,0.0,0.0,93,0.00,,,0.01,Wunderground v.1.15,2013-01-08 03:59:00,
2013-01-07 23:05:00,28.9,27.1,30.45,WSW,246,0.0,0.0,93,0.00,,,0.01,Wunderground v.1.15,2013-01-08 04:05:00,
2013-01-07 23:15:00,28.7,26.9,30.46,WSW,246,0.0,0.0,93,0.00,,,0.01,Wunderground v.1.15,2013-01-08 04:15:00,
2013-01-07 23:24:00,28.5,26.7,30.45,WSW,246,0.0,0.0,93,0.00,,,0.01,Wunderground v.1.15,2013-01-08 04:24:00,
2013-01-07 23:29:00,28.4,26.6,30.45,WSW,246,0.0,0.0,93,0.00,,,0.01,Wunderground v.1.15,2013-01-08 04:29:00,
2013-01-07 23:34:00,28.4,26.6,30.45,WSW,246,0.0,0.0,93,0.00,,,0.01,Wunderground v.1.15,2013-01-08 04:34:00,
2013-01-07 23:39:00,28.5,27.0,30.45,WSW,246,0.0,0.0,94,0.00,,,0.01,Wunderground v.1.15,2013-01-08 04:39:00,
2013-01-07 23:44:00,28.5,27.0,30.45,WSW,246,0.0,0.0,94,0.00,,,0.01,Wunderground v.1.15,2013-01-08 04:44:00,
2013-01-07 23:54:00,28.5,27.0,30.44,WSW,246,0.0,0.0,94,0.00,,,0.01,Wunderground v.1.15,2013-01-08 04:54:00,
2013-01-07 23:59:00,28.5,27.0,30.44,WSW,246,0.0,0.0,94,0.00,,,0.01,Wunderground v.1.15,2013-01-08 04:59:00,